Powrót do katalogu

STARLINK-30528

AktywnyŁącznośćVLEO
NORAD 57967·PAYLOAD·🇺🇸 United States

Wystrzelony Sep 30, 2023 z Cape Canaveral Space Force Station

Loading…

Następne Przeloty (najbliższe 24 godziny)

TLE

ŚwieżeSource: CelesTrak SupGP

Epoka: Sep 15, 2026, 02:45 UTC

1 57967C 23151D   26258.11506944  .00037743  00000+0  13670-2 0  2589
2 57967  43.0028 346.0653 0001755 265.6631 269.9194 15.27560067    17

Śledź STARLINK-30528 w czasie rzeczywistym z AllMySat

Download on the App Store